Regional Weather Roundup
Issued by NWS

Home | Current Version | Previous Version | Graphics & Text | Print | Product List | Glossary On
Versions: 1 2 3 4 5 6 7 8 9 10 11 12 13 14 15 16 17 18 19 20 21 22 23 24 25 26 27 28 29 30 31 32 33 34 35 36 37 38 39 40 41 42 43 44 45 46 47 48 49 50
000
ASUS43 KBIS 040510
RWRND

NORTH DAKOTA REGIONAL WEATHER ROUNDUP
NATIONAL WEATHER SERVICE BISMARCK ND
1200 AM CDT FRI SEP 04 2015

NOTE: "FAIR" INDICATES FEW OR NO CLOUDS BELOW 12,000 FEET WITH NO
SIGNIFICANT WEATHER AND/OR OBSTRUCTIONS TO VISIBILITY.


NDZ001>003-009>011-017-040600-
NORTHWEST NORTH DAKOTA

CITY           SKY/WX    TMP DP  RH WIND       PRES   REMARKS
WILLISTON      MOCLDY    68  53  58 N10       29.77F
MINOT          MOCLDY    71  65  81 NW10      29.72S
$$

NDZ018>021-031>035-040>046-040600-
SOUTHWEST NORTH DAKOTA

CITY           SKY/WX    TMP DP  RH WIND       PRES   REMARKS
BISMARCK       MOCLDY    80  69  69 S10       29.69S
DICKINSON      CLEAR     72  63  73 NE10      29.72S
GARRISON         N/A     72  67  84 N7        29.71F
HETTINGER ARPT PTCLDY    72  53  51 E10       29.72F
$$

NDZ004>008-012>016-024-026-027-054-040600-
NORTHEAST NORTH DAKOTA

CITY           SKY/WX    TMP DP  RH WIND       PRES   REMARKS
GRAND FORKS    CLOUDY    79  72  79 S15G26    29.75S
GRND FRKS AFB  CLOUDY    79  74  83 S15       29.76S
DEVILS LAKE    CLOUDY    77  64  65 S9        29.74S
$$

NDZ022-023-025-028>030-036>039-047>053-040600-
SOUTHEAST NORTH DAKOTA

CITY           SKY/WX    TMP DP  RH WIND       PRES   REMARKS
FARGO          MOCLDY    79  73  82 SE12      29.79S
JAMESTOWN      CLOUDY    76  72  87 SW6       29.77R
$$



USA.gov is the U.S. government's official web portal to all federal, state and local government web resources and services.